PST,Max TemperatureF,Mean TemperatureF,Min TemperatureF,Max Dew PointF,MeanDew PointF,Min DewpointF,Max Humidity, Mean Humidity, Min Humidity, Max Sea Level PressureIn, Mean Sea Level PressureIn, Min Sea Level PressureIn, Max VisibilityMiles, Mean VisibilityMiles, Min VisibilityMiles, Max Wind SpeedMPH, Mean Wind SpeedMPH, Max Gust SpeedMPH,PrecipitationIn, CloudCover, Events, WindDirDegrees
2012-12-1,54,51,48,48,45,42,93,82,71,29.62,29.47,29.24,10,8,2,28,14,43,0.99,7,Rain-Thunderstorm,191
2012-12-2,52,50,47,47,45,40,100,86,71,29.84,29.57,29.20,10,9,2,28,16,39,0.58,7,Rain,217
2012-12-3,53,51,48,50,48,44,100,89,77,29.97,29.89,29.52,10,7,1,23,12,35,1.16,8,Rain,199
2012-12-4,55,51,47,54,48,36,100,86,71,29.94,29.70,29.50,10,8,2,37,14,52,0.39,8,Rain,212
2012-12-5,50,45,39,42,39,33,89,75,60,30.22,30.17,29.98,10,10,9,20,6,28,0.09,6,Rain,180
2012-12-6,49,46,43,45,43,40,100,89,77,30.21,30.16,30.12,10,9,2,22,9,26,0.27,7,Rain,228
2012-12-7,50,45,40,45,41,35,93,82,70,30.22,30.14,30.09,10,9,2,24,10,32,0.23,6,Rain,261
2012-12-8,45,43,40,42,40,37,100,92,83,30.33,30.27,30.21,10,9,6,15,4,22,0.19,8,Rain,143
2012-12-9,51,46,41,49,44,39,100,95,89,30.38,30.32,30.28,10,4,1,16,5,24,0.35,8,Rain,112
2012-12-10,49,44,38,47,43,37,100,90,80,30.45,30.33,30.12,10,8,0,18,3,26,0.01,6,Fog-Rain,250
2012-12-11,47,44,40,45,42,37,100,88,76,30.08,29.70,29.59,10,7,1,20,8,29,0.63,8,Rain,241
2012-12-12,49,44,38,43,40,35,100,90,80,30.02,29.85,29.69,10,9,4,16,5,24,0.47,7,Rain,161
2012-12-13,48,41,33,41,38,32,100,88,76,30.04,29.91,29.81,10,7,1,5,3,38,0.31,7,Rain,122
2012-12-14,49,41,32,41,39,32,100,83,66,29.94,29.85,29.78,10,8,0,9,3,,0.29,5,Fog-Rain,132
2012-12-15,47,40,33,43,37,32,96,86,76,29.88,29.68,29.55,10,8,2,28,8,40,0.49,7,Rain,191
2012-12-16,53,47,40,50,42,36,93,82,70,29.78,29.37,29.00,10,7,2,35,14,49,1.60,8,Rain,184
2012-12-17,49,44,38,46,36,29,93,73,53,29.93,29.55,29.03,10,8,2,39,18,53,0.29,7,Rain,262
2012-12-18,43,39,34,36,33,30,100,83,65,30.00,29.96,29.91,10,9,2,25,8,33,0.32,6,Rain-Thunderstorm,157
2012-12-19,49,43,37,45,40,35,92,86,79,29.92,29.65,29.46,10,6,1,37,14,54,2.71,8,Rain,165
2012-12-20,48,43,38,43,37,33,96,88,79,29.77,29.64,29.47,10,8,0,36,8,52,0.71,6,Fog-Rain,159
2012-12-21,50,44,38,38,37,34,92,79,66,29.72,29.67,29.57,10,10,10,13,6,22,0.04,4,Rain,125
2012-12-22,48,44,40,41,38,36,89,80,71,29.68,29.56,29.46,10,9,2,25,9,35,0.31,7,Rain,136
2012-12-23,44,42,39,40,38,35,89,83,76,29.87,29.70,29.62,10,9,5,17,7,23,0.29,7,Rain,153
2012-12-24,48,45,41,39,35,33,82,69,56,30.16,30.07,29.91,10,10,7,20,7,28,0.05,6,Rain,199
2012-12-25,44,42,39,41,38,35,89,86,82,29.95,29.67,29.58,10,9,4,22,14,32,0.97,8,Rain,113
2012-12-26,48,45,41,43,40,38,96,87,77,30.00,29.80,29.67,10,8,2,20,8,26,0.60,8,Rain,213
2012-12-27,48,44,39,43,40,38,96,86,76,30.15,30.11,30.01,10,10,9,12,5,15,T,7,Rain,128
2012-12-28,45,43,41,43,40,37,96,89,82,30.14,30.10,30.08,10,9,6,8,5,12,0.24,8,Rain,84
2012-12-29,44,41,37,40,37,36,92,87,82,30.21,30.16,30.13,10,10,6,10,4,13,T,8,Rain,89
2012-12-30,46,39,32,36,33,30,92,79,65,30.29,30.25,30.20,10,10,6,13,5,16,0.00,1,,89
2012-12-31,39,37,34,35,33,30,96,86,76,30.40,30.29,30.22,10,10,8,15,7,20,0.04,5,Rain,86